| time (UTC) | temp F | wind direction | speed knots | gust knots | rain 1hr in | rain 24hr in | rain mn in | humidity % | barometer mb |
| 20260901112608 | 55 | 21 | 0.9 | 2.6 | 0.00 | 0.00 | 0.00 | 55 | 1017.7 |
| 20260901111609 | 53 | 36 | 0.0 | 3.5 | 0.00 | 0.00 | 0.00 | 56 | 1017.6 |
| 20260901110607 | 52 | 67 | 1.7 | 4.3 | 0.00 | 0.00 | 0.00 | 57 | 1017.4 |
| 20260901110039 | 49 | 55 | 0.9 | 3.5 | 0.00 | 0.00 | 0.00 | 59 | 1017.3 |
| 20260901104601 | 47 | 84 | 0.0 | 0.0 | 0.00 | 0.00 | 0.00 | 60 | 1017.3 |
| 20260901103600 | 47 | 9 | 0.0 | 0.0 | 0.00 | 0.00 | 0.00 | 60 | 1017.3 |
| 20260901102600 | 46 | 9 | 0.0 | 0.0 | 0.00 | 0.00 | 0.00 | 61 | 1017.2 |
| 20260901101601 | 46 | 9 | 0.0 | 0.0 | 0.00 | 0.00 | 0.00 | 61 | 1017.1 |
| 20260901100601 | 47 | 9 | 0.0 | 0.0 | 0.00 | 0.00 | 0.00 | 61 | 1017.1 |
| 20260901095600 | 47 | 9 | 0.0 | 0.0 | 0.00 | 0.00 | 0.00 | 61 | 1017.0 |
| 20260901094601 | 47 | 9 | 0.0 | 0.0 | 0.00 | 0.00 | 0.00 | 60 | 1017.0 |
| 20260901094035 | 47 | 281 | 0.0 | 0.0 | 0.00 | 0.00 | 0.00 | 60 | 1017.0 |
| 20260901092601 | 47 | 281 | 0.0 | 0.0 | 0.00 | 0.00 | 0.00 | 60 | 1016.9 |
| 20260901092528 | 47 | 281 | 0.0 | 0.0 | 0.00 | 0.00 | 0.00 | 61 | 1016.9 |
| 20260901090601 | 47 | 281 | 0.0 | 0.0 | 0.00 | 0.00 | 0.00 | 61 | 1016.9 |
| 20260901085601 | 47 | 281 | 0.0 | 0.0 | 0.00 | 0.00 | 0.00 | 61 | 1017.0 |
| 20260901084601 | 47 | 281 | 0.0 | 0.0 | 0.00 | 0.00 | 0.00 | 61 | 1017.0 |
| 20260901083601 | 47 | 281 | 0.0 | 0.0 | 0.00 | 0.00 | 0.00 | 61 | 1017.0 |
| 20260901082601 | 47 | 281 | 0.0 | 0.0 | 0.00 | 0.00 | 0.00 | 61 | 1017.0 |
| 20260901081601 | 47 | 281 | 0.0 | 0.0 | 0.00 | 0.00 | 0.00 | 61 | 1017.0 |
| 20260901080601 | 48 | 281 | 0.0 | 0.0 | 0.00 | 0.00 | 0.00 | 61 | 1017.0 |
| 20260901075601 | 48 | 281 | 0.0 | 0.0 | 0.00 | 0.00 | 0.00 | 61 | 1016.9 |
| 20260901075038 | 48 | 281 | 0.0 | 0.0 | 0.00 | 0.00 | 0.00 | 61 | 1017.0 |
| 20260901073602 | 48 | 281 | 0.0 | 0.0 | 0.00 | 0.00 | 0.00 | 61 | 1017.0 |
| 20260901073044 | 49 | 281 | 0.0 | 0.0 | 0.00 | 0.00 | 0.00 | 61 | 1017.0 |
| 20260901072039 | 49 | 281 | 0.0 | 0.0 | 0.00 | 0.00 | 0.00 | 61 | 1017.0 |
| 20260901070601 | 49 | 281 | 0.0 | 0.0 | 0.00 | 0.00 | 0.00 | 61 | 1017.2 |
| 20260901065600 | 49 | 281 | 0.0 | 0.0 | 0.00 | 0.00 | 0.00 | 61 | 1017.1 |
| 20260901064601 | 49 | 281 | 0.0 | 0.0 | 0.00 | 0.00 | 0.00 | 62 | 1017.1 |
| 20260901063601 | 49 | 281 | 0.0 | 0.0 | 0.00 | 0.00 | 0.00 | 61 | 1017.2 |
| 20260901062600 | 49 | 281 | 0.0 | 0.0 | 0.00 | 0.00 | 0.00 | 62 | 1017.2 |
| 20260901061601 | 49 | 281 | 0.0 | 0.0 | 0.00 | 0.01 | 0.00 | 62 | 1017.2 |
| 20260901061041 | 49 | 281 | 0.0 | 0.0 | 0.00 | 0.01 | 0.00 | 63 | 1017.2 |
| 20260901055601 | 49 | 281 | 0.0 | 0.0 | 0.00 | 0.01 | 0.00 | 63 | 1017.3 |
| 20260901054602 | 50 | 281 | 0.0 | 0.0 | 0.00 | 0.01 | 0.00 | 62 | 1017.4 |
| 20260901053601 | 50 | 281 | 0.0 | 0.0 | 0.00 | 0.01 | 0.00 | 63 | 1017.2 |
| 20260901053037 | 50 | 281 | 0.0 | 0.0 | 0.00 | 0.01 | 0.00 | 63 | 1017.2 |
| 20260901051602 | 50 | 281 | 0.0 | 0.0 | 0.00 | 0.01 | 0.00 | 63 | 1017.2 |
| 20260901050601 | 50 | 281 | 0.0 | 0.0 | 0.00 | 0.01 | 0.00 | 63 | 1017.2 |
| 20260901045600 | 51 | 281 | 0.0 | 0.0 | 0.00 | 0.01 | 0.00 | 63 | 1017.2 |
| 20260901044601 | 51 | 281 | 0.0 | 0.0 | 0.00 | 0.01 | 0.00 | 63 | 1017.3 |
| 20260901043601 | 51 | 281 | 0.0 | 0.0 | 0.00 | 0.01 | 0.00 | 63 | 1017.2 |
| 20260901043048 | 51 | 281 | 0.0 | 0.0 | 0.00 | 0.01 | 0.00 | 64 | 1017.2 |
| 20260901041602 | 52 | 281 | 0.0 | 0.0 | 0.00 | 0.01 | 0.00 | 64 | 1017.2 |
| 20260901040601 | 52 | 281 | 0.0 | 0.0 | 0.00 | 0.01 | 0.00 | 64 | 1017.1 |
| 20260901035601 | 52 | 281 | 0.0 | 0.0 | 0.00 | 0.01 | 0.01 | 65 | 1017.0 |
| 20260901035036 | 52 | 281 | 0.0 | 0.0 | 0.00 | 0.01 | 0.01 | 66 | 1017.2 |
| 20260901033602 | 52 | 281 | 0.0 | 0.0 | 0.00 | 0.01 | 0.01 | 67 | 1017.2 |
| 20260901032601 | 52 | 281 | 0.0 | 0.0 | 0.00 | 0.01 | 0.01 | 67 | 1017.1 |
| 20260901032043 | 52 | 281 | 0.0 | 0.0 | 0.00 | 0.01 | 0.01 | 68 | 1017.2 |
| 20260901030601 | 52 | 281 | 0.0 | 0.0 | 0.00 | 0.01 | 0.01 | 69 | 1017.4 |
| 20260901025601 | 52 | 281 | 0.0 | 0.0 | 0.00 | 0.01 | 0.01 | 71 | 1017.4 |
| 20260901024602 | 53 | 281 | 0.0 | 0.0 | 0.00 | 0.01 | 0.01 | 72 | 1017.5 |
| 20260901023601 | 53 | 281 | 0.0 | 0.0 | 0.00 | 0.01 | 0.01 | 72 | 1017.5 |
| 20260901022601 | 54 | 281 | 0.0 | 0.0 | 0.00 | 0.01 | 0.01 | 73 | 1017.3 |
| 20260901021601 | 55 | 281 | 0.0 | 0.0 | 0.00 | 0.02 | 0.01 | 74 | 1017.2 |
| 20260901020601 | 56 | 281 | 0.0 | 0.0 | 0.00 | 0.02 | 0.01 | 74 | 1017.2 |
| 20260901015601 | 56 | 270 | 0.0 | 0.0 | 0.00 | 0.02 | 0.01 | 74 | 1017.1 |
| 20260901015042 | 56 | 281 | 0.0 | 0.0 | 0.00 | 0.03 | 0.01 | 75 | 1017.1 |
| 20260901013601 | 57 | 259 | 0.0 | 0.0 | 0.00 | 0.03 | 0.01 | 75 | 1017.1 |
| 20260901012602 | 58 | 276 | 0.0 | 0.0 | 0.00 | 0.03 | 0.01 | 76 | 1017.1 |
| 20260901011600 | 58 | 240 | 0.0 | 0.0 | 0.00 | 0.04 | 0.01 | 76 | 1017.1 |
| 20260901010601 | 59 | 188 | 0.0 | 0.0 | 0.00 | 0.07 | 0.01 | 76 | 1017.0 |
| 20260901005601 | 59 | 283 | 0.0 | 0.9 | 0.00 | 0.11 | 0.01 | 76 | 1017.0 |
| 20260901004601 | 60 | 237 | 0.0 | 0.9 | 0.00 | 0.20 | 0.01 | 76 | 1017.1 |
| 20260901003601 | 60 | 246 | 0.0 | 0.9 | 0.00 | 0.20 | 0.01 | 75 | 1017.0 |
| 20260901002601 | 61 | 204 | 0.9 | 4.3 | 0.00 | 0.20 | 0.01 | 75 | 1016.8 |
| 20260901001600 | 62 | 192 | 0.9 | 4.3 | 0.00 | 0.20 | 0.01 | 74 | 1016.8 |
| 20260901000601 | 62 | 178 | 0.9 | 3.5 | 0.00 | 0.20 | 0.01 | 73 | 1016.6 |
| 20260831235601 | 62 | 239 | 0.9 | 3.5 | 0.00 | 0.20 | 0.01 | 73 | 1016.5 |
| 20260831234601 | 62 | 177 | 0.9 | 2.6 | 0.00 | 0.20 | 0.01 | 73 | 1016.7 |
| 20260831233602 | 62 | 217 | 0.0 | 2.6 | 0.00 | 0.20 | 0.01 | 73 | 1016.5 |
| 20260831232600 | 63 | 167 | 0.0 | 1.7 | 0.00 | 0.20 | 0.01 | 73 | 1016.5 |
| 20260831231601 | 65 | 187 | 0.0 | 0.0 | 0.00 | 0.20 | 0.01 | 72 | 1016.6 |
| 20260831231043 | 66 | 187 | 0.0 | 0.0 | 0.00 | 0.20 | 0.01 | 70 | 1016.5 |
| 20260831230514 | 67 | 187 | 0.0 | 0.0 | 0.00 | 0.20 | 0.01 | 69 | 1016.6 |
| 20260831224601 | 69 | 187 | 0.0 | 0.0 | 0.00 | 0.20 | 0.01 | 68 | 1016.6 |
| 20260831224046 | 70 | 187 | 0.0 | 0.0 | 0.00 | 0.20 | 0.01 | 66 | 1016.5 |
| 20260831222601 | 71 | 187 | 0.0 | 0.0 | 0.00 | 0.20 | 0.01 | 63 | 1016.3 |
| 20260831221601 | 72 | 187 | 0.0 | 0.9 | 0.00 | 0.20 | 0.01 | 58 | 1016.5 |
| 20260831221044 | 73 | 187 | 0.0 | 0.9 | 0.00 | 0.20 | 0.01 | 56 | 1016.5 |
| 20260831215601 | 74 | 187 | 0.9 | 2.6 | 0.00 | 0.20 | 0.01 | 49 | 1016.4 |
| 20260831214600 | 75 | 292 | 0.9 | 4.3 | 0.00 | 0.20 | 0.01 | 51 | 1016.5 |
| 20260831213600 | 75 | 214 | 1.7 | 4.3 | 0.00 | 0.20 | 0.01 | 46 | 1016.6 |
| 20260831212601 | 75 | 230 | 1.7 | 4.3 | 0.00 | 0.20 | 0.01 | 46 | 1016.6 |
| 20260831211601 | 76 | 269 | 1.7 | 4.3 | 0.00 | 0.20 | 0.01 | 47 | 1016.5 |
| 20260831210601 | 76 | 238 | 1.7 | 7.0 | 0.00 | 0.20 | 0.01 | 49 | 1016.5 |
| 20260831210042 | 76 | 161 | 1.7 | 7.0 | 0.00 | 0.20 | 0.01 | 48 | 1016.7 |
| 20260831204601 | 77 | 284 | 0.0 | 3.5 | 0.00 | 0.20 | 0.01 | 54 | 1016.7 |
| 20260831203600 | 76 | 346 | 1.7 | 4.3 | 0.00 | 0.20 | 0.01 | 53 | 1016.7 |
| 20260831202601 | 76 | 309 | 1.7 | 6.1 | 0.00 | 0.20 | 0.01 | 52 | 1016.6 |
| 20260831201601 | 76 | 256 | 2.6 | 6.1 | 0.00 | 0.20 | 0.01 | 50 | 1016.8 |
| 20260831200600 | 76 | 219 | 0.9 | 5.2 | 0.00 | 0.20 | 0.01 | 54 | 1016.7 |
| 20260831195602 | 76 | 344 | 0.9 | 3.5 | 0.00 | 0.20 | 0.01 | 52 | 1016.8 |
| 20260831194601 | 76 | 113 | 0.9 | 4.3 | 0.00 | 0.20 | 0.01 | 52 | 1016.9 |
| 20260831193601 | 76 | 104 | 0.9 | 2.6 | 0.00 | 0.20 | 0.01 | 48 | 1017.0 |
| 20260831192601 | 75 | 290 | 1.7 | 7.0 | 0.00 | 0.20 | 0.01 | 54 | 1017.0 |
| 20260831191601 | 75 | 300 | 2.6 | 7.0 | 0.00 | 0.20 | 0.01 | 50 | 1017.1 |
| 20260831191034 | 75 | 287 | 1.7 | 5.2 | 0.00 | 0.20 | 0.01 | 49 | 1017.1 |
| 20260831185601 | 75 | 140 | 1.7 | 4.3 | 0.00 | 0.20 | 0.01 | 52 | 1017.3 |
| 20260831184601 | 74 | 238 | 1.7 | 4.3 | 0.00 | 0.20 | 0.01 | 52 | 1017.4 |
| 20260831183601 | 74 | 256 | 1.7 | 5.2 | 0.00 | 0.20 | 0.01 | 54 | 1017.5 |
| 20260831182600 | 74 | 270 | 1.7 | 7.0 | 0.00 | 0.20 | 0.01 | 55 | 1017.6 |
| 20260831181600 | 73 | 235 | 2.6 | 7.0 | 0.00 | 0.20 | 0.01 | 56 | 1017.7 |
| 20260831180601 | 72 | 296 | 2.6 | 5.2 | 0.00 | 0.20 | 0.01 | 56 | 1017.7 |
| 20260831175601 | 73 | 284 | 1.7 | 4.3 | 0.00 | 0.20 | 0.01 | 56 | 1017.9 |
| 20260831174601 | 72 | 265 | 2.6 | 5.2 | 0.00 | 0.20 | 0.01 | 56 | 1018.1 |
| 20260831173601 | 72 | 78 | 0.9 | 4.3 | 0.00 | 0.20 | 0.01 | 57 | 1018.1 |
| 20260831172601 | 72 | 27 | 1.7 | 6.1 | 0.00 | 0.20 | 0.01 | 55 | 1018.1 |
| 20260831171600 | 72 | 254 | 1.7 | 6.1 | 0.00 | 0.20 | 0.01 | 57 | 1018.2 |
| 20260831170601 | 71 | 246 | 1.7 | 7.0 | 0.00 | 0.20 | 0.01 | 60 | 1018.3 |
| 20260831170042 | 71 | 228 | 1.7 | 7.0 | 0.00 | 0.20 | 0.01 | 61 | 1018.3 |
| 20260831164601 | 70 | 69 | 2.6 | 7.0 | 0.00 | 0.20 | 0.01 | 58 | 1018.4 |
| 20260831163600 | 70 | 288 | 2.6 | 9.6 | 0.00 | 0.20 | 0.01 | 59 | 1018.7 |
| 20260831162601 | 70 | 290 | 1.7 | 7.8 | 0.00 | 0.20 | 0.01 | 61 | 1018.8 |
| 20260831161601 | 69 | 248 | 1.7 | 7.8 | 0.00 | 0.20 | 0.01 | 58 | 1018.7 |
| 20260831160601 | 69 | 304 | 1.7 | 4.3 | 0.00 | 0.20 | 0.01 | 60 | 1019.0 |
| 20260831155600 | 69 | 302 | 2.6 | 5.2 | 0.00 | 0.20 | 0.01 | 62 | 1018.9 |
| 20260831154601 | 69 | 54 | 1.7 | 5.2 | 0.00 | 0.20 | 0.01 | 64 | 1018.9 |
| 20260831153601 | 68 | 344 | 1.7 | 6.1 | 0.00 | 0.20 | 0.01 | 66 | 1019.0 |
| 20260831152601 | 68 | 297 | 1.7 | 6.1 | 0.00 | 0.20 | 0.01 | 67 | 1019.2 |
| 20260831151600 | 67 | 161 | 1.7 | 6.1 | 0.00 | 0.20 | 0.01 | 67 | 1019.3 |
| 20260831150601 | 66 | 322 | 1.7 | 6.1 | 0.00 | 0.20 | 0.01 | 70 | 1019.4 |
| 20260831150036 | 66 | 282 | 2.6 | 6.1 | 0.00 | 0.20 | 0.01 | 72 | 1019.4 |
| 20260831144602 | 65 | 15 | 2.6 | 6.1 | 0.00 | 0.20 | 0.01 | 72 | 1019.5 |
| 20260831143601 | 65 | 290 | 1.7 | 5.2 | 0.00 | 0.20 | 0.01 | 73 | 1019.6 |
| 20260831143520 | 65 | 236 | 1.7 | 5.2 | 0.00 | 0.20 | 0.01 | 74 | 1019.7 |
| 20260831141601 | 64 | 296 | 1.7 | 6.1 | 0.00 | 0.20 | 0.01 | 74 | 1019.7 |
| 20260831140601 | 63 | 286 | 1.7 | 6.1 | 0.00 | 0.20 | 0.01 | 74 | 1019.6 |
| 20260831135601 | 62 | 355 | 2.6 | 6.1 | 0.00 | 0.20 | 0.01 | 70 | 1019.4 |
| 20260831134600 | 62 | 254 | 2.6 | 5.2 | 0.00 | 0.20 | 0.01 | 65 | 1019.4 |
| 20260831134526 | 61 | 280 | 2.6 | 6.1 | 0.00 | 0.20 | 0.01 | 58 | 1019.3 |
| 20260831132601 | 60 | 261 | 1.7 | 6.1 | 0.00 | 0.20 | 0.01 | 54 | 1019.4 |
| 20260831131601 | 59 | 271 | 2.6 | 6.1 | 0.00 | 0.20 | 0.01 | 52 | 1019.3 |
| 20260831130600 | 59 | 291 | 1.7 | 5.2 | 0.00 | 0.20 | 0.01 | 53 | 1019.2 |
| 20260831125601 | 58 | 316 | 1.7 | 3.5 | 0.00 | 0.20 | 0.01 | 53 | 1019.1 |
| 20260831124601 | 57 | 275 | 0.9 | 4.3 | 0.00 | 0.20 | 0.01 | 54 | 1019.0 |
| 20260831124040 | 57 | 229 | 0.9 | 2.6 | 0.00 | 0.20 | 0.01 | 54 | 1019.0 |
| 20260831122601 | 56 | 288 | 0.0 | 2.6 | 0.00 | 0.20 | 0.01 | 55 | 1019.0 |
| 20260831121601 | 55 | 292 | 0.9 | 2.6 | 0.00 | 0.20 | 0.01 | 55 | 1019.1 |
| 20260831120601 | 55 | 252 | 0.0 | 2.6 | 0.00 | 0.20 | 0.01 | 55 | 1019.0 |
| 20260831115600 | 54 | 184 | 0.0 | 1.7 | 0.00 | 0.20 | 0.01 | 56 | 1019.1 |
| 20260831114600 | 53 | 234 | 0.0 | 0.0 | 0.00 | 0.20 | 0.01 | 56 | 1019.1 |
| 20260831114040 | 53 | 252 | 0.0 | 0.0 | 0.00 | 0.20 | 0.01 | 56 | 1019.0 |
| 20260831113039 | 51 | 236 | 0.0 | 0.0 | 0.00 | 0.20 | 0.01 | 57 | 1019.0 |